27 April 2015 Space
GT Aviation logo and link to the homepage
GT Aviation logo and link to the homepage Space
Space

GT Aviation UK - Airfield Weather Information

 

Weather information for EGHH


18 minutes ago, at 20:20 UTC, the wind was blowing at a speed of 2.1 meters per second (4.6 miles per hour) from West/Northwest in EGHH. The temperature was 5 degrees Celsius (41 degrees Fahrenheit), and the pressure was 1,013 hPa (29.91 inHg). The relative humidity was 86.9%. There were a few clouds at a height of 762 meter (2500 feet). The visibility was >11.3 kilometers (>7 miles).

The METAR this information has been retrieved from is: EGHH 272020Z 29004KT 9999 FEW025 05/03 Q1013

Search again?
Enter ICAO code: and show the report in
Don't know the ICAO code of the airport you want weather for?

To see a graphical view of the weather for EGHH, click here to visit SkyLinkWeather

 



GT Aviation UK
PO Box 15, WEYMOUTH DT4 8DS, UK
Email jane@gtaviation.co.uk Web www.gtaviation.co.uk

Use of this website constitutes acceptance of our User Agreement

TYNT INSIGHT technology is in use on this website to monitor text and pictures being copied from it. A record is kept only of the content copied.